Other Public Products
Issued by NWS Charleston, SC

Current Version | Previous Version | Text Only | Print | Product List | Glossary Off
Versions: 1 2 3 4 5 6 7 8 9 10 11 12 13 14 15 16 17 18 19 20 21 22 23 24 25 26 27 28 29 30 31 32 33 34 35 36 37 38 39 40 41 42 43 44 45 46 47 48 49 50
705 FPUS82 KCHS 280127 OPUCHS TEST...KCHS/KSAV Gateway Observations...TEST National Weather Service Charleston SC 900 PM EDT SAT MAY 27 2017 NOTE: "fair" indicates few or no clouds below 12,000 feet with no significant weather and/or obstructions to visibility. SCZ050-WAZ558-NCZ071-TXZ119-213-PAZ071-DCZ001-FLZ074-172-MI076- NYZ176-178-MAZ016-IL014-TNZ027-NJZ106-GAZ044-MD014-280200- ...Gateway Observations for Charleston International... CITY SKY/WX TMP DP RH WIND PRES REMARKS Chas Airport CLEAR 76 68 76 S7 29.93R Seattle SUNNY 85 43 22 N7 30.05S Charlotte MOCLDY 78 66 66 S6 29.91S Dallas DFW PTCLDY 89 75 63 S20G28 29.73F HX 99 Dallas Love PTCLDY 89 74 60 S10 29.75F HX 98 Philladelphia MOCLDY 67 58 72 SW6 29.90R Wash National MOCLDY 68 62 81 E6 29.88F Baltimore MOCLDY 64 62 93 E7 29.89S Miami MOCLDY 86 76 71 S7 30.02S HX 96 Detroit MOCLDY 66 54 65 SE6 29.88S Newark MOCLDY 68 57 68 E8 29.89R Laguardia MOCLDY 65 55 70 VRB5 29.89R J F K MOCLDY 62 58 86 E7 29.91R Boston Logan CLOUDY 56 49 77 SE9 29.93R Ft. Lauderdale PTCLDY 86 73 65 S7 30.01S HX 93 Chicago O`Hare CLOUDY 70 53 54 E7 29.84F Chicago Midway CLOUDY 66 55 67 E7 29.84F Houston Bush MOCLDY 84 73 69 S13 29.86S HX 90 Houston Hobby MOCLDY 82 74 76 S12 29.87S Nashville TSTM 67 64 90 W9 29.94S Atlanta PTCLDY 77 69 76 SW6 29.98S $$ GAZ044-118-TXZ119-213-NCZ071-DCZ001-MDZ014-506-PAZ021-071-NJZ106- NYZ176-178-MAZ106-OHZ011-021-055-MIZ076-KYZ091-ILZ014-INZ047- MNZ060-ONZ431-280200- ...Gateway Observations for Savannah International... CITY SKY/WX TMP DP RH WIND PRES REMARKS Savannah Arpt CLEAR 83 60 45 SW6 29.92F Atlanta PTCLDY 77 69 76 SW6 29.98S Charlotte MOCLDY 78 66 66 S6 29.91S Dallas DFW PTCLDY 89 75 63 S20G28 29.73F HX 99 Houston Bush MOCLDY 84 73 69 S13 29.86S HX 90 Wash National MOCLDY 68 62 81 E6 29.88F Wash Dulles MOCLDY 67 60 78 CALM 29.89S Baltimore MOCLDY 64 62 93 E7 29.89S Philadelphia MOCLDY 67 58 72 SW6 29.90R Newark MOCLDY 68 57 68 E8 29.89R Laguardia MOCLDY 65 55 70 VRB5 29.89R J F K MOCLDY 62 58 86 E7 29.91R Boston CLOUDY 56 49 77 SE9 29.93R Pittsburg CLOUDY 68 63 84 CALM 29.90R Akron PTCLDY 69 57 65 E5 29.89R Cleveland CLOUDY 69 51 52 NE7 29.91S Cincinnati CLOUDY 74 69 85 S5 29.84R THUNDER Columbus CLOUDY 73 67 81 E7 29.84R Detroit MOCLDY 66 54 65 SE6 29.88S Chicago O`Hare CLOUDY 70 53 54 E7 29.84F Minneapolis MOCLDY 70 46 42 SW7 29.86S Indianapolis CLOUDY 73 63 70 N8 29.85R Toronto Canada MOCLDY 59 52 77 E5 29.89F $$

USA.gov is the U.S. government's official web portal to all federal, state and local government web resources and services.